Tiempo cada hora Cayo Guillermo

Hoy, 21 Enero, Jueves

Tiempo Temperatura Precipitaciones Viento Presión Humedad
00:00 +23°C° 0 mm 7 mps 764 mmHg 78%
01:00 +23°C° 0 mm 7 mps 764 mmHg 79%
02:00 +22°C° 0 mm 6 mps 764 mmHg 81%
03:00 +22°C° 0 mm 6 mps 764 mmHg 83%
04:00 +22°C° 0 mm 6 mps 764 mmHg 84%
05:00 +22°C° 0 mm 6 mps 764 mmHg 83%
06:00 +22°C° 0 mm 6 mps 764 mmHg 82%
07:00 +22°C° 0 mm 6 mps 764 mmHg 80%
08:00 +23°C° 0 mm 6 mps 764 mmHg 75%
09:00 +24°C° 0 mm 7 mps 765 mmHg 69%
10:00 +26°C° 0 mm 7 mps 765 mmHg 63%
11:00 +26°C° 0 mm 7 mps 764 mmHg 62%
12:00 +26°C° 0 mm 6 mps 764 mmHg 62%
13:00 +27°C° 0 mm 6 mps 763 mmHg 61%
14:00 +26°C° 0 mm 6 mps 763 mmHg 63%
15:00 +26°C° 0 mm 6 mps 762 mmHg 65%
16:00 +26°C° 0 mm 6 mps 762 mmHg 66%
17:00 +24°C° 0 mm 6 mps 762 mmHg 72%
18:00 +22°C° 0 mm 6 mps 762 mmHg 78%
19:00 +21°C° 0 mm 5 mps 763 mmHg 83%
20:00 +21°C° 0 mm 5 mps 763 mmHg 85%
21:00 +21°C° 0 mm 5 mps 763 mmHg 86%
22:00 +20°C° 0 mm 5 mps 763 mmHg 87%
23:00 +20°C° 0 mm 5 mps 763 mmHg 87%

Mañana, 22 Enero, Viernes

Tiempo Temperatura Precipitaciones Viento Presión Humedad
00:00 +20°C° 0 mm 5 mps 762 mmHg 88%
01:00 +20°C° 0 mm 5 mps 762 mmHg 88%
02:00 +20°C° 0 mm 5 mps 762 mmHg 89%
03:00 +20°C° 0 mm 5 mps 762 mmHg 90%
04:00 +20°C° 0 mm 5 mps 761 mmHg 90%
05:00 +20°C° 0 mm 5 mps 761 mmHg 91%
06:00 +20°C° 0 mm 5 mps 762 mmHg 91%
07:00 +20°C° 0 mm 5 mps 762 mmHg 92%
08:00 +22°C° 0 mm 5 mps 762 mmHg 84%
09:00 +25°C° 0 mm 4 mps 762 mmHg 77%
10:00 +27°C° 0 mm 4 mps 763 mmHg 69%
11:00 +28°C° 0 mm 4 mps 762 mmHg 64%
12:00 +29°C° 0 mm 3 mps 762 mmHg 58%
13:00 +30°C° 0 mm 3 mps 762 mmHg 53%
14:00 +30°C° 0 mm 3 mps 761 mmHg 55%
15:00 +30°C° 0 mm 4 mps 761 mmHg 57%
16:00 +29°C° 0 mm 4 mps 761 mmHg 60%
17:00 +28°C° 0 mm 4 mps 761 mmHg 69%
18:00 +26°C° 0 mm 4 mps 762 mmHg 78%
19:00 +23°C° 0 mm 4 mps 762 mmHg 87%
20:00 +23°C° 0 mm 4 mps 762 mmHg 88%
21:00 +22°C° 0 mm 4 mps 763 mmHg 89%
22:00 +22°C° 0 mm 4 mps 763 mmHg 90%
23:00 +22°C° 0 mm 3 mps 763 mmHg 91%

Pasado mañana, 23 Enero, Sábado

Tiempo Temperatura Precipitaciones Viento Presión Humedad
00:00 +22°C° 0 mm 3 mps 762 mmHg 92%
01:00 +22°C° 0 mm 3 mps 762 mmHg 93%
02:00 +22°C° 0 mm 3 mps 762 mmHg 93%
03:00 +21°C° 0 mm 3 mps 762 mmHg 94%
04:00 +21°C° 0 mm 3 mps 762 mmHg 94%
05:00 +22°C° 0 mm 3 mps 762 mmHg 93%
06:00 +22°C° 0 mm 3 mps 762 mmHg 92%
07:00 +22°C° 0 mm 3 mps 763 mmHg 91%
08:00 +24°C° 0 mm 3 mps 763 mmHg 84%
09:00 +26°C° 0 mm 3 mps 763 mmHg 77%
10:00 +27°C° 0 mm 2 mps 764 mmHg 70%
11:00 +28°C° 0 mm 2 mps 763 mmHg 67%
12:00 +29°C° 0 mm 2 mps 763 mmHg 63%
13:00 +29°C° 0 mm 3 mps 763 mmHg 59%
14:00 +29°C° 0 mm 3 mps 762 mmHg 62%
15:00 +28°C° 0 mm 4 mps 762 mmHg 65%
16:00 +28°C° 0 mm 4 mps 762 mmHg 68%
17:00 +26°C° 0 mm 5 mps 762 mmHg 74%
18:00 +25°C° 0 mm 5 mps 762 mmHg 80%
19:00 +23°C° 0 mm 5 mps 763 mmHg 85%
20:00 +22°C° 0 mm 5 mps 763 mmHg 87%
21:00 +22°C° 0 mm 5 mps 763 mmHg 88%
22:00 +22°C° 0 mm 5 mps 764 mmHg 89%
23:00 +22°C° 0 mm 6 mps 763 mmHg 89%

24 Enero, Domingo

Tiempo Temperatura Precipitaciones Viento Presión Humedad
00:00 +22°C° 0 mm 6 mps 763 mmHg 89%
01:00 +21°C° 0 mm 6 mps 763 mmHg 89%
02:00 +21°C° 0 mm 6 mps 763 mmHg 90%
03:00 +21°C° 0 mm 6 mps 762 mmHg 90%
04:00 +21°C° 0 mm 6 mps 762 mmHg 90%
05:00 +21°C° 0 mm 6 mps 762 mmHg 89%
06:00 +21°C° 0 mm 6 mps 763 mmHg 89%
07:00 +21°C° 0 mm 6 mps 763 mmHg 88%
08:00 +23°C° 0 mm 6 mps 763 mmHg 81%
09:00 +24°C° 0 mm 6 mps 764 mmHg 74%
10:00 +27°C° 0 mm 6 mps 764 mmHg 66%
11:00 +27°C° 0 mm 6 mps 764 mmHg 63%
12:00 +28°C° 0 mm 6 mps 763 mmHg 61%
13:00 +29°C° 0 mm 6 mps 763 mmHg 58%
14:00 +28°C° 0 mm 6 mps 762 mmHg 60%
15:00 +28°C° 0 mm 6 mps 762 mmHg 63%
16:00 +27°C° 0 mm 6 mps 762 mmHg 65%
17:00 +26°C° 0 mm 6 mps 762 mmHg 71%
18:00 +24°C° 0 mm 7 mps 762 mmHg 76%
19:00 +23°C° 0 mm 7 mps 762 mmHg 82%
20:00 +22°C° 0 mm 7 mps 763 mmHg 84%
21:00 +22°C° 0 mm 7 mps 763 mmHg 86%
22:00 +22°C° 0 mm 7 mps 763 mmHg 88%
23:00 +22°C° 0 mm 7 mps 763 mmHg 88%

25 Enero, Lunes

Tiempo Temperatura Precipitaciones Viento Presión Humedad
00:00 +22°C° 0 mm 7 mps 762 mmHg 88%
01:00 +22°C° 0 mm 7 mps 762 mmHg 88%
02:00 +21°C° 0 mm 7 mps 762 mmHg 88%
03:00 +21°C° 0 mm 7 mps 762 mmHg 88%
04:00 +21°C° 0 mm 7 mps 762 mmHg 88%
05:00 +21°C° 0 mm 7 mps 762 mmHg 89%
06:00 +21°C° 0 mm 7 mps 762 mmHg 89%
07:00 +21°C° 0 mm 7 mps 762 mmHg 89%
08:00 +23°C° 0 mm 7 mps 762 mmHg 82%
09:00 +24°C° 0 mm 7 mps 763 mmHg 75%
10:00 +27°C° 0 mm 7 mps 763 mmHg 68%
11:00 +28°C° 0 mm 7 mps 762 mmHg 63%
12:00 +29°C° 0 mm 7 mps 762 mmHg 57%
13:00 +30°C° 0 mm 7 mps 761 mmHg 51%
14:00 +30°C° 0 mm 7 mps 761 mmHg 53%
15:00 +30°C° 0 mm 7 mps 761 mmHg 54%
16:00 +29°C° 0 mm 7 mps 760 mmHg 56%
17:00 +28°C° 0 mm 7 mps 760 mmHg 62%
18:00 +26°C° 0 mm 7 mps 761 mmHg 69%
19:00 +24°C° 0 mm 7 mps 761 mmHg 76%
20:00 +23°C° 0 mm 6 mps 761 mmHg 79%
21:00 +22°C° 0 mm 6 mps 762 mmHg 83%
22:00 +22°C° 0 mm 6 mps 762 mmHg 86%
23:00 +21°C° 0 mm 6 mps 762 mmHg 88%

26 Enero, Martes

Tiempo Temperatura Precipitaciones Viento Presión Humedad
00:00 +21°C° 0 mm 5 mps 761 mmHg 89%
01:00 +21°C° 0 mm 5 mps 761 mmHg 90%
02:00 +21°C° 0 mm 5 mps 761 mmHg 91%
03:00 +20°C° 0 mm 4 mps 761 mmHg 92%
04:00 +20°C° 0 mm 4 mps 761 mmHg 93%
05:00 +20°C° 0 mm 4 mps 761 mmHg 93%
06:00 +20°C° 0 mm 3 mps 762 mmHg 93%
07:00 +20°C° 0 mm 3 mps 762 mmHg 93%
08:00 +22°C° 0 mm 3 mps 762 mmHg 85%
09:00 +25°C° 0 mm 3 mps 763 mmHg 77%
10:00 +27°C° 0 mm 4 mps 763 mmHg 69%
11:00 +28°C° 0 mm 4 mps 763 mmHg 63%
12:00 +30°C° 0 mm 4 mps 762 mmHg 57%
13:00 +32°C° 0 mm 4 mps 762 mmHg 51%
14:00 +30°C° 0 mm 4 mps 762 mmHg 54%
15:00 +30°C° 0 mm 4 mps 761 mmHg 58%
16:00 +29°C° 0 mm 5 mps 761 mmHg 61%
17:00 +28°C° 0 mm 5 mps 761 mmHg 68%
18:00 +27°C° 0 mm 6 mps 761 mmHg 75%
19:00 +24°C° 0 mm 6 mps 762 mmHg 83%
20:00 +23°C° 0 mm 6 mps 762 mmHg 85%
21:00 +23°C° 0 mm 6 mps 762 mmHg 88%
22:00 +22°C° 0 mm 6 mps 763 mmHg 91%
23:00 +22°C° 0 mm 6 mps 763 mmHg 92%
Mostrar más